Torna al catalogo

STARLING 4

AttivoScienzaPO
NORAD 57386·PAYLOAD·🇺🇸 United States

Lanciato Jul 18, 2023 da Rocket Lab Launch Complex 1

Loading…

Prossimi Passaggi (prossime 24 ore)

TLE

AggiornatoSource: Space-Track

Epoca: Sep 14, 2026, 13:25 UTC

1 57386U 23100A   26257.55966544  .00000940  00000-0  68810-4 0  9991
2 57386  99.5059 296.1489 0006444 175.7836 184.3440 15.07025283173369

Traccia STARLING 4 in tempo reale con AllMySat

Download on the App Store